Farmington, NM

7:11 PM MST on December 03, 2016 (GMT -0700)
Four Corners Regional

Weather History for KFMN - May, 2013

Change the Weather History Date:

Friday, May 31, 2013

  Actual Average Record
Temperature  
Mean Temperature 60 °F -  
Max Temperature 80 °F 82 °F 98 °F (2002)
Min Temperature 41 °F 47 °F 34 °F (1988)
Degree Days  
Heating Degree Days 4    
Growing Degree Days 10 (Base 50)    
Moisture  
Dew Point 13 °F    
Average Humidity 15    
Maximum Humidity 36    
Minimum Humidity 4    
Precipitation  
Precipitation 0.00 in - - ()
Sea Level Pressure  
Sea Level Pressure 29.89 in    
Wind  
Wind Speed 8 mph (WNW)    
Max Wind Speed 29 mph    
Max Gust Speed 36 mph    
Visibility 10 miles    
Events      
Averages and records for this station are not official NWS values.
T = Trace of Precipitation, MM = Missing Value Source: NWS Daily Summary

Daily Weather History Graph

Daily Weather History Graph

Search for Another Location

Airport or City:

Trip Planner

Search our weather history database for the weather conditions in past years. The results will help you decide how hot, cold, wet, or windy it might be!

Date:

Astronomy

May. 31, 2013 Rise Set
Actual Time 5:55 AM MDT 8:25 PM MDT
Civil Twilight 5:25 AM MDT 8:55 PM MDT
Nautical Twilight 4:48 AM MDT 9:33 PM MDT
Astronomical Twilight 4:07 AM MDT 10:14 PM MDT
Moon 1:09 AM MDT (5/31) 1:06 PM MDT (5/31)
Length of Visible Light 15h 30m
Length of Day
14h 30m
Waning Gibbous, 51% of the Moon is Illuminated
May 31
Waning Gibbous
May 31
Last Quarter
Jun 8
New
Jun 16
First Quarter
Jun 23
Full

Hourly Weather History & Observations

Time (MDT) Temp. Windchill Dew Point Humidity Pressure Visibility Wind Dir Wind Speed Gust Speed Precip Events Conditions
12:53 AM 52.0 °F - 15.1 °F 23% 29.79 in 10.0 mi Calm Calm - N/A   Clear
1:53 AM 48.0 °F - 16.0 °F 28% 29.80 in 10.0 mi North 3.5 mph - N/A   Clear
2:53 AM 46.9 °F - 16.0 °F 29% 29.81 in 10.0 mi Calm Calm - N/A   Clear
3:53 AM 43.0 °F 38.8 °F 15.1 °F 32% 29.83 in 10.0 mi NNE 6.9 mph - N/A   Clear
4:53 AM 43.0 °F 41.3 °F 17.1 °F 35% 29.83 in 10.0 mi ESE 3.5 mph - N/A   Clear
5:53 AM 41.0 °F - 16.0 °F 36% 29.86 in 10.0 mi Calm Calm - N/A   Clear
6:53 AM 46.9 °F - 18.0 °F 32% 29.87 in 10.0 mi Calm Calm - N/A   Clear
7:53 AM 53.1 °F - 23.0 °F 31% 29.90 in 10.0 mi Calm Calm - N/A   Clear
8:53 AM 60.1 °F - 24.1 °F 25% 29.91 in 10.0 mi SW 10.4 mph - N/A   Clear
9:53 AM 69.1 °F - 21.9 °F 17% 29.90 in 10.0 mi West 13.8 mph - N/A   Clear
10:53 AM 73.0 °F - 21.0 °F 14% 29.90 in 10.0 mi West 16.1 mph 23.0 mph N/A   Clear
11:53 AM 73.0 °F - 21.0 °F 14% 29.91 in 10.0 mi West 8.1 mph 20.7 mph N/A   Clear
12:53 PM 75.9 °F - 15.1 °F 10% 29.91 in 10.0 mi West 25.3 mph 33.4 mph N/A   Clear
1:53 PM 78.1 °F - 10.9 °F 8% 29.90 in 10.0 mi WNW 25.3 mph 32.2 mph N/A   Clear
2:53 PM 78.1 °F - 8.1 °F 7% 29.89 in 10.0 mi West 28.8 mph 35.7 mph N/A   Clear
3:53 PM 78.1 °F - 10.9 °F 8% 29.89 in 10.0 mi West 20.7 mph 35.7 mph N/A   Clear
4:53 PM 78.1 °F - 7.0 °F 7% 29.88 in 10.0 mi WNW 12.7 mph 35.7 mph N/A   Clear
5:53 PM 77.0 °F - 1.9 °F 5% 29.89 in 10.0 mi WNW 25.3 mph 35.7 mph N/A   Clear
6:53 PM 75.9 °F - 3.0 °F 6% 29.88 in 10.0 mi WNW 15.0 mph 31.1 mph N/A   Clear
7:53 PM 73.9 °F - 6.1 °F 7% 29.88 in 10.0 mi NW 16.1 mph 23.0 mph N/A   Clear
8:08 PM 71.6 °F - 6.8 °F 8% 30.02 in 10.0 mi North 15.0 mph - N/A   Clear
8:53 PM 66.9 °F - 7.0 °F 10% 29.90 in 10.0 mi NNW 11.5 mph - N/A   Clear
9:53 PM 64.0 °F - 6.1 °F 10% 29.92 in 10.0 mi NNW 9.2 mph - N/A   Clear
10:53 PM 61.0 °F - 7.0 °F 12% 29.95 in 10.0 mi WNW 3.5 mph - N/A   Clear
11:53 PM 59.0 °F - 7.0 °F 13% 29.96 in 10.0 mi NW 3.5 mph - N/A   Clear